Date,TemperatureHighF,TemperatureAvgF,TemperatureLowF,DewpointHighF,DewpointAvgF,DewpointLowF,HumidityHigh,HumidityAvg,HumidityLow,PressureMaxIn,PressureMinIn,WindSpeedMaxMPH,WindSpeedAvgMPH,GustSpeedMaxMPH,PrecipitationSumIn
2013-6-1,87.7,77.6,68.3,87.8,77.6,68.3,100,100,100,30.10,29.97,5,1,15,0.00
2013-6-2,85.9,77.2,68.7,85.9,77.2,68.7,100,100,100,30.01,29.86,7,2,17,0.00
2013-6-3,82.1,73.7,66.5,82.1,73.7,66.5,100,100,100,29.91,29.78,5,0,21,0.52
2013-6-4,77.8,69.5,64.8,77.8,69.5,64.8,100,100,100,30.06,29.89,0,0,4,0.01
2013-6-5,81.8,69.4,61.9,81.8,69.4,61.9,100,100,100,30.10,30.00,1,0,7,0.00
2013-6-6,75.9,70.1,64.7,75.9,70.1,64.7,100,100,100,30.01,29.79,1,0,9,0.65
2013-6-7,75.0,70.6,68.8,75.0,70.6,68.8,100,100,100,29.81,29.46,2,0,9,4.02
2013-6-8,81.5,72.8,67.5,81.5,72.8,67.5,100,100,100,30.04,29.77,2,0,12,0.04
2013-6-9,85.7,75.3,65.3,85.7,75.3,65.3,100,100,100,30.12,30.01,2,0,8,0.03
2013-6-10,81.9,74.7,71.3,81.9,74.7,71.3,100,100,100,30.05,29.85,6,2,20,0.57
2013-6-11,83.8,75.5,69.9,83.8,75.5,69.9,100,100,100,29.91,29.84,3,1,16,0.00
2013-6-12,89.6,77.3,64.8,89.6,77.3,64.8,100,100,100,29.92,29.82,3,0,13,0.00
2013-6-13,92.9,82.8,68.3,92.9,82.8,68.3,100,100,100,29.81,29.55,7,2,20,0.00
2013-6-14,79.3,70.3,59.2,79.3,70.3,59.2,100,100,100,29.89,29.67,2,0,10,0.00
2013-6-15,84.0,78.0,66.6,84.0,78.0,66.6,100,100,100,30.02,30.00,1,0,10,0.00
2013-6-16,86.4,75.2,65.4,86.4,75.2,65.4,100,100,100,30.08,29.95,5,2,18,0.00
2013-6-17,85.6,77.2,71.6,85.6,77.2,71.6,100,100,100,29.98,29.88,3,1,12,0.02
2013-6-18,83.1,74.6,70.1,83.1,74.6,70.1,100,100,100,29.92,29.70,3,1,21,0.55
2013-6-19,80.1,72.0,64.5,80.1,72.0,64.5,100,100,100,30.07,29.83,0,0,7,0.00
2013-6-20,82.0,71.5,63.1,82.0,71.5,63.1,100,100,100,30.20,30.08,0,0,6,0.01
2013-6-21,83.2,68.6,55.6,83.2,68.6,55.6,100,100,100,30.22,30.15,0,0,7,0.00
2013-6-22,82.6,73.5,68.3,82.6,73.5,68.3,100,100,100,30.17,30.08,2,0,6,0.00
2013-6-23,85.2,75.7,67.2,85.2,75.7,67.2,100,100,100,30.17,30.08,1,0,10,0.04
2013-6-24,87.0,78.6,72.2,87.0,78.6,72.2,100,100,100,30.16,30.04,3,1,12,0.00
2013-6-25,89.6,77.7,70.8,89.6,77.7,70.8,100,100,100,30.07,29.96,6,1,12,0.00
2013-6-26,90.1,78.6,69.9,90.1,78.6,69.9,100,100,100,29.99,29.84,3,1,15,0.42
2013-6-27,88.0,81.6,71.9,88.0,81.6,71.9,100,100,100,29.80,29.67,5,2,15,0.01
2013-6-28,90.6,79.0,72.0,90.6,79.0,72.0,100,100,98,29.70,29.52,3,1,13,0.35
2013-6-29,83.5,77.2,70.3,83.5,77.2,70.3,100,100,100,29.68,29.58,1,0,25,0.32
2013-6-30,85.3,75.9,71.2,85.3,75.9,71.2,100,100,100,29.81,29.67,1,0,18,1.12